Tracking 17631 objects as of 6-May-2016
HD Live streaming from Space Station
objects crossing your sky now

ATLAS CENTAUR R/B

Track ATLAS CENTAUR R/B now!


NORAD ID: 10976
Int'l Code: 1978-068B
Perigee: 636.8 km
Apogee: 36,218.4 km
Inclination: 21.9 °
Period: 647.7 minutes
Semi major axis: 24798 km
RCS: 16.8333 m2 (large)
Launch date: June 29, 1978
Source: United States (US)
Launch site: AIR FORCE EASTERN TEST RANGE (AFETR)

Note: This is a ROCKET BODY
Your satellite tracking list
Your tracking list is empty





NASA's NSSDC Master Catalog

Two Line Element Set (TLE):
1 10976U 78068B   16125.82179708 -.00000128 +00000-0 -11318-2 0  9998
2 10976 021.8814 343.7688 7174097 007.7320 195.0378 02.22311443303991
Source of the keplerian elements: AFSPC

N2YO: 292